FW2977 Weather Reports


Display with metric or nautical units.
time (UTC)temp
F
wind
direction
speed
MPH
gust
MPH
rain 1hr
in
rain 24hr
in
rain mn
in
humidity
%
barometer
mb
20260504231554 66 121 9.0 15.0 0.00 0.00 0.00 42 952.7
20260504230047 67 126 5.0 13.0 0.00 0.00 0.00 42 952.7
20260504224548 67 161 5.0 14.0 0.00 0.00 0.00 41 952.7
20260504223046 68 166 5.0 14.0 0.00 0.00 0.00 41 952.6
20260504221554 68 118 6.0 19.0 0.00 0.00 0.00 41 952.6
20260504220045 68 106 13.0 23.0 0.00 0.00 0.00 41 952.5
20260504214549 68 112 11.0 17.0 0.00 0.00 0.00 41 952.6
20260504213048 68 163 4.0 12.0 0.00 0.00 0.00 42 952.7
20260504211541 68 171 7.0 12.0 0.00 0.00 0.00 41 952.8
20260504210052 69 142 7.0 14.0 0.00 0.00 0.00 40 953.0
20260504204617 70 105 3.0 15.0 0.00 0.00 0.00 40 953.1
20260504203036 70 134 2.0 11.0 0.00 0.00 0.00 39 953.3
20260504201537 71 191 6.0 12.0 0.00 0.00 0.00 40 953.4
20260504200038 69 220 4.0 14.0 0.00 0.00 0.00 40 953.7
20260504194543 71 177 4.0 12.0 0.00 0.00 0.00 40 953.7
20260504193031 71 185 8.0 15.0 0.00 0.00 0.00 38 954.0
20260504191529 70 167 5.0 15.0 0.00 0.00 0.00 42 953.8
20260504190033 68 111 9.0 18.0 0.00 0.00 0.00 45 953.9
20260504184526 67 138 3.0 12.0 0.00 0.00 0.00 42 954.1
20260504183029 70 159 6.0 12.0 0.00 0.00 0.00 39 954.3
20260504181525 67 188 4.0 11.0 0.00 0.00 0.00 42 954.4
20260504180021 70 127 8.0 15.0 0.00 0.00 0.00 39 954.5
20260504174518 69 186 7.0 13.0 0.00 0.00 0.00 41 954.5
20260504173017 68 128 8.0 14.0 0.00 0.00 0.00 41 954.6
20260504171533 68 202 5.0 10.0 0.00 0.00 0.00 42 954.5
20260504081549 46 202 6.0 14.0 0.00 0.00 0.00 59 956.9
20260504044527 48 167 4.0 7.0 0.00 0.00 0.00 55 957.2
20260504043025 47 166 3.0 5.0 0.00 0.00 0.00 55 957.1
20260504041524 48 134 2.0 4.0 0.00 0.00 0.00 54 957.2
20260504040022 47 120 3.0 7.0 0.00 0.00 0.00 57 957.1
20260504034518 48 94 3.0 6.0 0.00 0.00 0.00 58 957.1
20260504033022 49 128 3.0 4.0 0.00 0.00 0.00 55 957.2
20260504031518 49 235 0.0 0.0 0.00 0.00 0.00 55 957.2
20260504030028 48 235 0.0 0.0 0.00 0.00 0.00 56 957.2
20260504024517 48 235 0.0 2.0 0.00 0.00 0.00 57 957.3
20260504023017 49 235 0.0 4.0 0.00 0.00 0.00 57 957.6
20260504021517 48 257 1.0 2.0 0.00 0.00 0.00 56 957.5
20260504020019 48 257 0.0 2.0 0.00 0.00 0.00 56 957.5
20260504014515 47 257 0.0 2.0 0.00 0.00 0.00 59 957.4
20260504013015 47 257 0.0 3.0 0.00 0.00 0.00 58 957.3
20260504011515 48 257 1.0 3.0 0.00 0.00 0.00 57 957.3
20260504010014 49 257 1.0 5.0 0.00 0.00 0.00 53 957.1
20260504004520 50 234 3.0 7.0 0.00 0.00 0.00 50 957.0
20260504003012 51 230 4.0 6.0 0.00 0.00 0.00 50 956.8
20260504001512 50 227 2.0 5.0 0.00 0.00 0.00 50 956.6
20260504000113 50 209 1.0 3.0 0.00 0.00 0.00 52 956.5
20260503234521 50 209 1.0 3.0 0.00 0.00 0.00 50 956.4
20260503233010 51 184 1.0 5.0 0.00 0.00 0.00 49 956.3